Stations météo

Publicité
Dole Tavaux, France (7386): Température de l'air & dewpoint: 07.08.2020 13:00:00 - 13.08.2020 13:00:00 (CEST)Dole Tavaux, France (7386): Température de l'air 5cm: 07.08.2020 13:00:00 - 13.08.2020 13:00:00 (CEST)Dole Tavaux, France (7386): Vitesse du vent & gusts: 07.08.2020 13:00:00 - 13.08.2020 13:00:00 (CEST)Dole Tavaux, France (7386): Direction du vent: 07.08.2020 13:00:00 - 13.08.2020 13:00:00 (CEST)Dole Tavaux, France (7386): reduced air pressure: 07.08.2020 13:00:00 - 13.08.2020 13:00:00 (CEST)Dole Tavaux, France (7386): visibility: 07.08.2020 13:00:00 - 13.08.2020 13:00:00 (CEST)Dole Tavaux, France (7386): Ensoleillement: 07.08.2020 13:00:00 - 13.08.2020 13:00:00 (CEST)Dole Tavaux, France (7386): Quantités de précipitations: 07.08.2020 13:00:00 - 13.08.2020 13:00:00 (CEST)
Date & Time tt [°C] td [°C] tt 5cm [°C] ff [km/h] ff [knt] fx [km/h] fx [knt] dd ppp [hPa] vv [km] sd [min] rr [mm]
13.08.2020 13:00:00 - - - - - - - - - - - -
13.08.2020 12:00:00 - - - - - - - - - - - -
13.08.2020 11:00:00 - - - - - - - - - - - -
13.08.2020 10:00:00 - - - - - - - - - - - -
13.08.2020 09:00:00 - - - - - - - - - - - -
13.08.2020 08:00:00 - - - - - - - - - - - -
13.08.2020 07:00:00 - - - - - - - - - - - -
13.08.2020 06:00:00 - - - - - - - - - - - -
13.08.2020 05:00:00 - - - - - - - - - - - -
13.08.2020 04:00:00 - - - - - - - - - - - -
13.08.2020 03:00:00 - - - - - - - - - - - -
13.08.2020 02:00:00 - - - - - - - - - - - -
13.08.2020 01:00:00 - - - - - - - - - - - -
13.08.2020 00:00:00 - - - - - - - - - - - -
12.08.2020 23:00:00 - - - - - - - - - - - -
12.08.2020 22:00:00 - - - - - - - - - - - -
12.08.2020 21:00:00 - - - - - - - - - - - -
12.08.2020 20:00:00 - - - - - - - - - - - -
12.08.2020 19:00:00 - - - - - - - - - - - -
12.08.2020 18:00:00 - - - - - - - - - - - -
12.08.2020 17:00:00 - - - - - - - - - - - -
12.08.2020 16:00:00 - - - - - - - - - - - -
12.08.2020 15:00:00 - - - - - - - - - - - -
12.08.2020 14:00:00 - - - - - - - - - - - -
12.08.2020 13:00:00 - - - - - - - - - - - -
12.08.2020 12:00:00 - - - - - - - - - - - -
12.08.2020 11:00:00 - - - - - - - - - - - -
12.08.2020 10:00:00 - - - - - - - - - - - -
12.08.2020 09:00:00 - - - - - - - - - - - -
12.08.2020 08:00:00 - - - - - - - - - - - -
12.08.2020 07:00:00 - - - - - - - - - - - -
12.08.2020 06:00:00 - - - - - - - - - - - -
12.08.2020 05:00:00 - - - - - - - - - - - -
12.08.2020 04:00:00 - - - - - - - - - - - -
12.08.2020 03:00:00 - - - - - - - - - - - -
12.08.2020 02:00:00 - - - - - - - - - - - -
12.08.2020 01:00:00 - - - - - - - - - - - -
12.08.2020 00:00:00 - - - - - - - - - - - -
11.08.2020 23:00:00 24,7 16,9 20,8 8 4 15 8 E 1013,1 25 0 0,0
11.08.2020 22:00:00 26,2 15,9 22,6 6 3 11 6 E 1012,7 23 0 0,0
11.08.2020 21:00:00 30,1 14,6 26,6 5 3 7 4 NE 1012,1 30 7 0,0
11.08.2020 20:00:00 34,9 12,5 35,2 4 2 13 7 ESE 1011,5 32 60 0,0
11.08.2020 19:00:00 35,4 13,0 37,7 5 3 16 9 ESE 1011,2 20 60 0,0
11.08.2020 18:00:00 35,7 12,6 38,8 8 4 18 10 SSW 1011,5 29 60 0,0
11.08.2020 17:00:00 35,5 13,6 39,6 6 3 20 11 SW 1012,0 28 60 0,0
11.08.2020 16:00:00 35,1 13,9 39,8 6 4 24 13 S 1012,5 20 60 0,0
11.08.2020 15:00:00 34,6 14,5 39,7 9 5 23 12 SSW 1013,3 49 60 0,0
11.08.2020 14:00:00 33,4 15,4 38,1 5 3 20 11 SSW 1013,9 31 60 0,0
11.08.2020 13:00:00 32,2 16,1 35,9 8 5 21 11 SSW 1014,5 28 60 0,0
11.08.2020 12:00:00 30,8 16,0 33,8 10 6 27 15 SSW 1014,9 19 60 0,0
11.08.2020 11:00:00 28,8 16,0 30,4 14 7 33 18 SSW 1015,0 17 60 0,0
11.08.2020 10:00:00 27,1 16,1 27,3 16 9 26 14 SSW 1015,0 17 60 0,0
11.08.2020 09:00:00 24,1 16,4 23,3 13 7 19 10 SSW 1015,3 17 60 0,0
11.08.2020 08:00:00 21,4 15,9 18,0 2 1 8 4 ESE 1015,2 23 40 0,0
11.08.2020 07:00:00 18,0 14,9 16,2 4 2 8 5 E 1014,8 22 6 0,0
11.08.2020 06:00:00 18,1 14,4 15,9 5 3 12 6 ENE 1014,6 18 0 0,0
11.08.2020 05:00:00 19,1 14,8 16,8 5 3 11 6 ENE 1014,5 24 0 0,0
11.08.2020 04:00:00 20,3 14,6 18,1 5 3 15 8 SSE 1014,5 25 0 0,0
11.08.2020 03:00:00 21,3 14,7 17,9 6 3 13 7 S 1014,7 26 0 0,0
11.08.2020 02:00:00 23,1 14,6 21,0 10 5 18 10 SSW 1014,1 33 0 0,0
11.08.2020 01:00:00 24,5 14,9 23,5 16 8 25 14 S 1014,4 34 0 0,0
11.08.2020 00:00:00 25,5 15,8 24,6 18 10 29 16 S 1014,0 31 0 0,0
10.08.2020 23:00:00 26,8 16,4 25,8 18 10 29 16 S 1013,4 29 0 0,0
10.08.2020 22:00:00 28,2 17,4 26,1 18 10 34 18 S 1012,8 27 0 0,0
10.08.2020 21:00:00 29,3 16,5 27,2 9 5 16 9 ESE 1011,1 26 0 0,0
10.08.2020 20:00:00 31,5 16,7 30,4 6 3 11 6 SW 1010,6 27 0 0,0
10.08.2020 19:00:00 33,9 15,4 34,6 7 4 15 8 WSW 1010,1 29 14 0,0
10.08.2020 18:00:00 35,1 13,9 37,4 4 2 18 10 S 1010,0 21 55 0,0
10.08.2020 17:00:00 34,6 14,0 38,8 9 5 19 11 WNW 1010,0 23 50 0,0
10.08.2020 16:00:00 34,8 15,7 39,4 8 4 20 11 WSW 1010,6 20 60 0,0
10.08.2020 15:00:00 33,7 15,7 34,5 10 5 24 13 NNW 1010,9 33 26 0,0
10.08.2020 14:00:00 32,3 15,8 34,7 16 9 27 15 WSW 1011,7 26 29 0,0
10.08.2020 13:00:00 32,6 16,0 36,0 16 8 28 15 SSW 1012,1 19 60 0,0
10.08.2020 12:00:00 30,7 15,9 31,2 11 6 23 12 SSW 1012,5 19 25 0,0
10.08.2020 11:00:00 27,7 16,3 29,6 13 7 21 11 SSE 1012,9 18 9 0,0
10.08.2020 10:00:00 26,9 15,9 29,9 6 3 16 9 E 1012,8 26 56 0,0
10.08.2020 09:00:00 25,5 15,8 25,5 6 3 11 6 ENE 1013,1 20 60 0,0
10.08.2020 08:00:00 22,6 16,4 17,7 2 1 5 3 SSW 1013,2 20 40 0,0
10.08.2020 07:00:00 19,6 15,3 17,2 2 1 9 5 N 1013,0 18 0 0,0
10.08.2020 06:00:00 19,8 15,2 17,7 6 3 9 5 NE 1013,0 17 0 0,0
10.08.2020 05:00:00 21,7 15,1 18,6 4 2 10 5 W 1012,7 15 0 0,0
10.08.2020 04:00:00 21,4 15,7 20,5 8 5 10 6 ENE 1013,0 15 0 0,0
10.08.2020 03:00:00 22,9 15,0 21,9 9 5 19 10 SE 1013,1 16 0 0,0
10.08.2020 02:00:00 24,7 14,5 23,5 8 5 22 12 E 1013,1 16 0 0,0
10.08.2020 01:00:00 25,6 14,1 21,1 11 6 22 12 NE 1013,1 17 0 0,0
10.08.2020 00:00:00 24,0 15,5 21,5 6 4 12 6 SE 1013,0 16 0 0,0
09.08.2020 23:00:00 24,2 15,9 22,0 6 3 10 5 NE 1013,0 15 0 0,0
09.08.2020 22:00:00 26,4 15,1 - 8 4 18 10 S 1012,7 16 - 0,0
09.08.2020 21:00:00 29,4 15,5 25,2 8 4 10 5 NE 1011,9 16 0 0,0
09.08.2020 20:00:00 31,1 15,5 30,1 4 2 10 6 E 1011,6 15 0 0,0
09.08.2020 19:00:00 33,1 13,2 32,1 5 3 15 8 E 1011,5 18 13 0,0
09.08.2020 18:00:00 36,0 12,9 38,8 6 3 16 9 ESE 1011,9 17 60 0,0
09.08.2020 17:00:00 36,0 12,3 40,6 7 4 21 11 NE 1012,3 22 60 0,0
09.08.2020 16:00:00 36,0 11,6 40,6 6 3 23 12 NE 1012,6 19 60 0,0
09.08.2020 15:00:00 35,5 13,1 40,1 7 4 16 9 E 1013,4 13 60 0,0
09.08.2020 14:00:00 34,2 13,6 39,0 5 3 16 9 ESE 1014,2 20 56 0,0
09.08.2020 13:00:00 33,4 14,9 38,2 4 2 16 9 SE 1014,8 20 60 0,0
09.08.2020 12:00:00 31,9 14,5 35,3 5 3 14 8 SE 1015,5 17 60 0,0
09.08.2020 11:00:00 29,5 14,9 31,9 5 3 13 7 SW 1016,2 15 60 0,0
09.08.2020 10:00:00 27,1 14,8 27,5 4 2 11 6 SSE 1016,7 18 60 0,0
09.08.2020 09:00:00 23,5 15,5 23,9 6 3 10 5 E 1017,1 16 60 0,0
09.08.2020 08:00:00 20,7 15,3 16,7 3 2 11 6 E 1017,1 14 60 0,0
09.08.2020 07:00:00 16,8 14,3 14,0 8 5 10 5 E 1017,0 12 8 0,0
09.08.2020 06:00:00 17,0 14,3 13,7 4 2 10 5 ENE 1016,8 13 0 0,0
09.08.2020 05:00:00 17,4 14,5 14,2 4 2 5 3 NE 1016,8 14 0 0,0
09.08.2020 04:00:00 19,7 14,3 15,9 3 1 11 6 E 1016,7 16 0 0,0
09.08.2020 03:00:00 20,5 14,6 17,0 8 5 15 8 NNE 1016,5 18 0 0,0
09.08.2020 02:00:00 22,1 14,0 17,3 8 4 12 6 ENE 1016,3 19 0 0,0
09.08.2020 01:00:00 21,5 14,2 17,3 10 6 16 9 ENE 1016,2 20 0 0,0
09.08.2020 00:00:00 21,8 15,2 18,4 13 7 15 8 ENE 1016,2 21 0 0,0
08.08.2020 23:00:00 22,3 13,9 19,4 7 4 11 6 ENE 1016,1 20 0 0,0
08.08.2020 22:00:00 25,4 13,3 20,2 9 5 - - NE 1015,8 21 0 0,0
08.08.2020 21:00:00 28,0 11,9 23,4 - - - - - 1015,5 27 35 0,0
08.08.2020 20:00:00 33,4 10,1 33,1 - - - - - 1015,1 36 60 0,0
08.08.2020 19:00:00 35,1 8,0 36,7 16 9 - - ENE 1015,1 28 57 0,0
08.08.2020 18:00:00 35,4 13,5 38,5 15 8 - - E 1015,2 35 60 0,0
08.08.2020 17:00:00 35,7 14,4 39,8 - - - - - 1015,6 35 60 0,0
08.08.2020 16:00:00 35,4 13,0 40,4 7 4 - - SSE 1015,9 30 60 0,0
08.08.2020 15:00:00 34,7 13,5 40,1 7 4 16 9 E 1016,7 28 60 0,0
08.08.2020 14:00:00 33,0 15,0 38,0 7 4 14 7 SW 1017,2 28 60 0,0
08.08.2020 13:00:00 31,3 15,7 35,4 7 4 19 11 SSW 1017,8 34 60 0,0
08.08.2020 12:00:00 29,1 14,9 31,8 6 3 19 10 SSW 1018,4 24 58 0,0
08.08.2020 11:00:00 26,9 15,3 30,5 8 5 17 9 SW 1019,0 24 60 0,0
08.08.2020 10:00:00 24,2 15,1 25,1 4 2 11 6 SW 1019,3 22 60 0,0
08.08.2020 09:00:00 21,0 14,4 21,4 8 4 12 7 S 1019,4 22 57 0,0
08.08.2020 08:00:00 18,4 14,7 15,3 4 2 11 6 NE 1019,4 17 60 0,0
08.08.2020 07:00:00 15,0 13,5 11,4 10 6 12 7 E 1019,3 17 9 0,0
08.08.2020 06:00:00 14,4 13,3 11,2 6 3 7 4 ESE 1019,1 15 0 0,0
08.08.2020 05:00:00 - - - - - - - - - - - -
08.08.2020 04:00:00 16,9 14,5 13,0 4 2 7 4 E 1018,3 21 0 0,0
08.08.2020 03:00:00 17,5 14,8 14,5 3 2 6 3 NNW 1018,0 24 0 0,0
08.08.2020 02:00:00 18,7 14,6 13,9 4 2 8 4 ENE 1017,9 22 0 0,0
08.08.2020 01:00:00 19,6 15,3 16,1 2 1 8 4 SE 1017,6 20 0 0,0
08.08.2020 00:00:00 20,7 15,7 16,3 7 4 9 5 NE 1017,2 27 0 0,0
07.08.2020 23:00:00 22,8 15,9 17,7 4 2 7 4 NE 1016,8 26 0 0,0
07.08.2020 22:00:00 24,1 13,9 18,9 6 3 10 5 NE 1016,5 29 0 0,0
07.08.2020 21:00:00 28,5 13,2 22,9 7 4 12 7 NE 1015,7 32 37 0,0
07.08.2020 20:00:00 32,3 12,0 32,6 9 5 16 9 E 1015,4 37 60 0,0
07.08.2020 19:00:00 33,3 11,2 35,4 10 5 19 10 ENE 1015,5 38 60 0,0
07.08.2020 18:00:00 33,8 9,8 37,3 12 6 23 12 ENE 1015,7 54 60 0,0
07.08.2020 17:00:00 33,8 11,0 38,1 8 4 21 11 E 1015,8 38 60 0,0
07.08.2020 16:00:00 33,6 11,4 38,4 13 7 22 12 E 1016,2 47 60 0,0
07.08.2020 15:00:00 32,7 11,3 38,0 6 4 21 11 NNW 1016,6 41 60 0,0
07.08.2020 14:00:00 31,9 11,1 36,8 11 6 21 11 ESE 1017,0 32 60 0,0
07.08.2020 13:00:00 29,7 13,0 33,5 5 3 13 7 WSW 1017,5 28 60 0,0

tt = Température de l'air
td = dewpoint
tt 5cm = Température de l'air 5cm
ff = Vitesse du vent
fx = gusts
dd = Direction du vent
ppp = reduced air pressure
vv = visibility
sd = Ensoleillement
rr = Quantités de précipitations

stations d'obs. à proximité